Dewpoint
43 43 44 44 44 45 45 45 46 46 46 47 47 48 49 50 48 40 34 40 46 48 48 35 17 30 30 35 36 34 30 26 27 26 25 26 23 22 23 23 22 22 55 58 57
44 44 44 44 44 44 45 45 45 45 45 46 48 49 50 50 42 32 33 42 39 44 35 28 22 15 18 21 28 31 28 26 26 25 23 22 21 21 22 24 24 25 50 54 56
44 44 44 44 44 44 45 45 45 44 44 47 49 50 51 50 36 26 34 39 39 44 38 31 24 12 14 18 20 20 28 29 28 26 26 23 20 21 20 22 24 26 28 37 53
45 45 45 45 44 44 44 45 45 44 45 47 49 50 49 45 20 28 33 37 38 41 35 17 18 14 13 13 15 14 16 16 21 22 20 19 19 20 20 21 25 26 29 29 44
45 45 45 45 44 44 44 44 44 45 46 48 48 49 44 24 23 27 31 28 27 22 19 18 19 18 15 14 9 5 9 4 6 10 12 16 20 22 22 22 23 23 25 26 29
44 44 44 44 43 43 44 44 45 45 47 47 47 48 43 19 25 27 27 26 25 23 21 19 18 18 16 14 12 10 10 9 9 10 11 12 14 17 21 23 24 25 24 24 24
43 43 44 43 43 43 44 44 45 45 47 46 47 45 25 24 28 27 27 25 26 25 21 22 21 20 19 15 15 13 10 9 7 7 7 9 12 13 16 17 17 19 25 25 26
42 43 43 44 43 44 45 45 44 46 46 44 46 44 24 28 30 27 27 27 29 27 24 26 24 21 19 17 15 13 12 7 7 5 3 2 -0 4 11 13 14 15 19 22 24
42 43 44 44 44 44 44 43 43 45 46 45 40 38 22 29 22 26 24 26 29 27 27 29 25 22 21 19 16 13 8 8 8 8 7 5 1 2 1 -0 -1 6 15 19 22
42 43 43 43 44 44 43 41 42 43 44 39 33 27 18 18 22 26 23 24 23 19 21 27 26 17 15 18 16 14 12 11 9 9 8 6 6 7 6 5 4 3 6 17 22
43 43 43 43 43 44 42 38 34 26 21 19 19 17 16 20 26 22 23 24 20 17 12 14 12 12 13 14 13 12 11 8 9 10 9 9 8 8 7 6 5 5 5 5 8
43 43 42 42 43 39 42 30 28 32 19 20 21 20 17 16 19 19 22 18 19 16 17 14 11 13 11 11 9 12 9 8 9 10 12 11 10 9 9 8 8 8 8 9 8
43 42 42 43 43 38 31 30 34 38 28 19 17 11 13 11 19 12 15 16 17 17 16 14 14 16 14 12 11 12 10 11 15 16 13 10 10 10 10 12 12 9 7 8 8
43 43 43 43 39 36 28 34 38 41 25 21 21 14 9 8 14 14 13 15 14 16 17 14 18 16 15 13 11 9 12 15 20 20 17 18 5 6 7 8 15 16 18 20 19
42 43 42 43 39 31 31 36 37 42 13 14 12 9 10 9 11 10 13 12 15 19 18 18 17 14 21 21 23 18 18 21 21 18 17 14 9 6 7 24 24 22 28 32 34
42 42 42 40 39 33 37 39 40 29 1 15 8 9 6 12 11 12 14 18 23 19 18 17 19 23 20 14 17 15 15 17 20 20 15 13 22 20 26 31 25 24 26 28 34
42 42 42 40 37 40 43 40 23 20 8 8 7 6 6 13 11 11 12 23 20 17 17 17 15 24 12 11 11 13 16 14 15 11 13 18 19 28 34 29 28 31 32 32 34
41 40 42 43 44 43 42 35 11 13 16 9 6 5 5 11 11 10 11 16 20 19 15 12 10 12 12 11 9 9 16 15 12 12 13 14 9 28 31 32 32 32 31 36 36
38 39 43 42 43 45 39 21 8 15 12 8 8 6 5 12 11 10 10 13 17 19 11 12 12 12 11 12 10 10 17 22 18 16 15 12 25 33 22 22 26 27 33 36 37
34 37 38 40 43 42 30 24 17 14 11 9 9 8 6 8 9 9 10 13 14 16 17 12 10 11 13 12 12 12 15 17 18 13 10 9 14 21 13 12 25 31 34 36 36
36 36 37 39 42 34 13 25 15 14 14 14 13 9 10 11 10 9 8 15 16 15 14 15 18 15 12 11 9 9 21 20 21 21 15 11 11 25 13 12 26 33 34 37 37
35 33 37 39 31 34 28 17 16 13 14 15 15 15 13 12 10 10 10 10 16 14 13 19 18 15 12 10 24 26 23 16 14 11 12 12 10 13 12 11 26 34 35 38 38
34 35 36 38 19 30 21 17 17 14 14 15 15 14 13 12 11 12 12 13 12 15 15 16 13 10 9 9 16 14 15 16 17 17 12 11 8 10 12 11 30 34 37 38 38
35 26 31 32 36 31 19 18 17 18 17 15 14 13 14 14 16 14 14 15 16 15 20 18 15 12 12 12 15 13 12 14 16 12 8 9 9 10 10 11 31 35 36 36 35
35 29 27 20 26 30 25 21 19 18 15 15 15 14 15 13 14 14 15 15 16 17 15 13 10 15 15 16 14 12 12 12 13 13 11 10 9 9 15 30 31 35 36 35 35
24 32 32 26 27 26 24 22 17 16 18 16 14 16 17 15 15 16 18 18 16 15 15 16 11 15 13 13 14 13 15 15 14 12 11 10 8 30 33 34 35 35 37 37 36
36 30 32 31 24 24 24 22 18 17 16 15 15 16 15 19 20 20 20 19 19 17 16 15 14 14 11 14 16 15 14 14 17 24 28 23 29 32 31 33 34 35 36 37 35
Wind_Speed
9 10 12 12 11 13 13 14 15 16 16 18 19 20 20 23 24 6 11 6 9 21 24 17 15 8 14 7 12 12 7 15 17 17 21 25 14 13 10 3 6 8 17 19 15
9 10 11 12 13 14 15 15 15 16 17 18 18 20 19 19 1 15 4 10 15 13 12 15 18 16 8 6 6 7 8 11 17 22 20 19 22 17 11 14 14 11 11 19 17
10 11 11 12 13 14 14 14 15 16 19 20 19 19 16 14 0 6 9 11 16 13 7 11 15 10 8 14 11 12 18 18 24 25 22 22 24 17 16 12 16 15 7 6 12
10 12 13 14 15 15 16 15 15 16 17 17 18 18 19 2 4 4 15 16 18 19 8 13 14 10 6 8 7 9 14 20 19 20 22 21 16 21 15 14 16 18 12 8 6
11 14 14 16 16 16 15 15 16 15 13 14 17 14 7 9 7 7 9 15 16 20 19 14 16 12 9 13 18 10 12 23 24 23 21 22 19 16 26 16 15 24 16 13 13
13 15 16 17 18 18 17 16 15 12 11 13 15 16 2 8 9 14 12 6 11 13 15 15 10 13 10 10 11 15 23 23 20 23 20 19 21 20 28 19 21 18 25 19 16
12 14 16 17 19 18 17 16 12 8 9 11 12 7 21 5 11 9 15 11 12 11 9 11 10 8 14 11 10 18 23 24 22 18 23 22 25 29 23 25 27 24 22 25 18
12 13 15 17 18 19 17 15 9 7 10 10 10 2 6 2 8 9 11 15 17 6 3 6 5 6 4 8 9 13 14 11 6 15 18 20 31 28 27 25 29 29 26 24 28
12 14 17 19 18 18 19 14 8 9 11 14 5 2 5 1 9 10 12 11 13 11 12 8 2 3 5 7 8 7 15 19 18 16 17 9 20 17 20 23 26 27 27 25 24
13 15 18 20 20 19 20 8 8 7 6 6 8 5 7 6 3 7 9 13 11 19 10 1 5 8 11 10 10 16 23 22 23 21 29 24 23 24 22 23 21 23 19 16 23
13 16 19 22 21 20 13 5 4 5 11 8 11 13 7 7 3 7 14 15 17 12 13 11 13 12 15 16 16 15 17 21 24 23 23 28 21 28 24 25 23 20 21 21 19
12 15 19 22 23 23 2 4 5 0 6 4 11 7 1 6 9 11 16 11 11 13 17 11 8 16 21 20 20 16 19 23 22 22 23 26 28 28 26 22 22 21 22 22 18
12 14 17 21 23 6 14 7 8 9 4 3 2 5 2 3 1 4 9 7 10 12 16 13 12 20 20 20 22 17 18 19 24 26 22 19 22 24 28 29 28 26 25 25 24
14 16 17 20 8 1 4 8 7 4 5 5 5 1 2 5 1 12 6 4 6 13 12 7 15 18 20 18 16 20 15 19 21 22 17 20 28 25 21 22 23 25 25 25 26
14 16 17 8 10 3 5 9 2 2 3 4 4 1 6 6 4 6 11 4 7 12 12 12 18 19 16 19 17 12 19 10 15 22 16 24 15 30 15 13 27 30 23 23 23
15 16 15 6 1 5 8 10 2 4 3 4 4 4 4 8 6 8 9 12 10 7 12 19 15 9 9 21 13 18 22 22 16 9 13 11 7 9 6 12 24 27 26 23 19
15 18 13 8 2 6 8 3 3 2 3 7 3 3 2 5 5 7 8 11 8 8 15 11 11 5 26 24 20 21 20 11 6 5 4 10 12 1 15 17 20 23 29 28 22
16 16 10 5 6 7 4 3 4 5 3 3 3 4 4 3 3 2 4 3 9 11 5 9 10 18 26 18 17 18 11 6 8 9 18 20 9 3 2 1 10 13 17 24 24
17 4 3 2 5 7 4 5 3 4 4 2 4 4 4 7 2 5 4 4 4 7 4 6 4 22 16 21 12 11 13 13 9 10 12 7 5 7 11 11 12 14 15 15 18
7 5 2 3 5 3 5 3 2 7 4 1 2 4 4 8 6 6 3 3 5 7 7 4 13 7 19 18 14 16 18 6 7 6 7 8 5 3 21 25 24 22 25 23 27
2 2 2 6 4 9 5 2 6 8 7 7 6 3 4 6 6 8 3 6 7 3 4 6 0 9 10 10 23 26 7 7 5 6 6 11 6 4 23 26 20 18 23 23 22
4 4 1 6 4 1 2 2 2 8 3 4 3 2 3 7 5 5 4 6 5 2 6 4 2 6 17 19 14 15 7 6 3 7 8 8 13 14 31 35 21 20 21 19 15
2 4 2 4 3 1 3 5 4 4 4 5 1 3 3 3 4 6 6 6 6 3 2 3 2 13 11 6 6 6 10 9 9 10 11 11 14 21 30 29 15 18 20 20 17
2 4 3 6 3 3 6 6 4 4 5 4 1 5 3 4 7 6 10 7 12 13 6 7 6 8 16 20 13 18 20 17 15 9 20 21 35 27 28 25 10 11 14 14 18
3 3 4 4 4 3 1 3 9 5 3 2 0 7 6 2 6 11 10 15 13 11 8 5 9 6 13 18 21 26 27 27 23 22 21 27 28 29 18 14 10 7 13 12 16
5 4 2 1 9 7 4 1 5 6 10 7 7 6 5 2 4 13 9 7 4 5 6 4 4 13 25 18 22 25 25 30 22 25 28 26 25 6 6 13 15 14 12 12 15
4 2 2 4 3 6 7 7 4 3 5 4 2 4 3 3 7 9 11 12 13 13 12 9 5 6 11 14 18 15 12 6 6 15 9 7 9 14 13 4 6 8 9 11 14
Wind_Direction
36 35 31 21 7 1 9 4 8 358 353 344 344 340 347 340 328 46 41 279 286 303 321 306 352 274 273 244 263 287 269 270 269 275 284 301 314 322 340 340 331 335 117 142 138
36 25 26 11 3 358 2 3 1 356 350 345 345 343 345 342 341 60 267 279 288 300 336 341 330 337 341 303 267 216 260 255 264 277 291 315 333 333 345 341 324 341 112 141 151
29 14 13 7 359 355 358 357 355 354 351 346 344 340 335 336 282 23 327 300 299 296 270 283 288 323 270 277 276 263 243 255 272 282 295 304 316 325 335 309 297 311 46 341 156
17 15 3 356 351 350 352 355 354 350 347 337 339 339 331 1 62 349 333 314 302 302 296 360 341 354 337 327 349 342 288 257 261 283 305 305 320 319 305 290 292 296 325 7 287
10 4 2 350 344 346 347 347 348 345 337 335 337 342 7 67 38 10 347 353 9 5 359 12 27 4 354 325 327 314 332 324 318 319 317 326 327 318 295 307 307 302 310 311 311
4 2 354 349 341 341 343 345 340 336 332 335 339 334 86 83 278 352 353 2 355 7 355 14 6 337 289 301 303 319 324 317 312 308 310 311 310 309 286 308 310 303 296 292 283
7 4 350 348 336 335 338 340 336 328 328 327 337 330 59 65 313 13 5 8 13 2 351 353 341 338 337 309 309 316 309 301 287 293 291 304 286 268 280 286 281 278 278 288 285
358 358 349 340 334 331 338 340 336 326 323 319 318 300 86 289 329 32 24 3 341 324 279 302 321 293 227 265 302 297 291 297 311 267 258 236 258 261 257 259 256 252 252 257 278
0 357 346 334 333 333 336 334 327 320 306 308 339 60 70 183 30 339 29 341 325 308 275 250 299 262 291 267 298 277 280 302 307 323 340 356 293 317 298 268 261 260 237 235 242
358 353 341 333 332 336 331 303 288 309 285 273 274 74 42 23 336 300 9 316 336 329 333 350 195 316 306 18 337 326 325 321 318 324 322 318 309 311 312 320 315 318 322 259 231
358 349 339 333 331 331 340 324 357 39 39 61 60 85 46 335 250 75 14 3 360 354 13 336 321 318 325 336 323 320 314 310 309 314 314 310 312 311 310 306 309 309 310 308 305
353 349 340 333 327 329 100 47 43 138 97 137 134 120 189 286 24 27 37 21 359 5 357 359 331 335 326 319 310 316 312 305 310 316 325 324 315 306 305 307 308 304 306 305 306
346 345 337 331 324 345 59 37 25 13 128 58 3 90 266 22 14 23 46 15 346 5 352 337 320 344 337 337 329 321 309 321 328 333 314 309 307 310 315 316 311 306 285 281 274
342 338 336 332 324 293 62 7 24 1 101 151 201 124 275 263 121 84 75 75 341 350 344 356 340 319 317 311 306 302 322 311 335 340 309 321 300 295 296 301 335 334 341 341 320
338 336 335 350 307 53 12 334 7 24 120 224 100 157 276 98 235 91 33 16 2 20 359 314 340 342 351 346 343 317 337 331 303 293 305 294 296 279 306 5 357 355 9 18 13
335 335 343 336 191 357 350 318 344 81 143 180 154 163 20 85 9 35 11 351 62 21 357 324 303 51 21 345 337 330 346 318 299 262 262 309 341 319 17 359 352 354 349 8 21
333 330 327 308 53 353 324 323 63 105 216 154 122 77 287 68 55 23 351 64 63 12 349 326 2 102 21 346 339 356 339 329 325 342 296 8 308 359 12 16 356 358 343 2 6
329 323 308 62 346 329 336 80 85 178 247 64 144 267 215 108 92 330 333 81 77 68 343 347 336 16 339 341 342 328 329 341 306 309 299 309 268 78 252 109 37 342 0 356 350
324 296 247 18 336 339 90 89 153 214 63 53 283 277 103 122 142 40 329 103 113 102 72 325 259 320 324 353 326 323 345 305 276 289 276 250 74 85 323 21 10 6 16 354 1
339 287 44 305 348 12 86 122 105 51 82 244 36 55 8 10 23 355 354 143 116 127 143 239 295 323 343 323 334 336 316 336 339 307 297 294 304 168 18 9 5 12 7 6 3
304 145 316 322 27 55 112 144 106 81 25 25 48 33 6 9 355 347 335 95 86 19 318 341 329 306 339 328 316 318 41 354 313 330 309 343 287 222 0 353 360 16 356 359 3
270 100 280 341 31 79 101 87 349 122 64 85 50 16 20 20 329 336 347 36 143 55 1 111 225 299 309 301 72 58 8 357 5 319 305 263 271 280 342 335 348 7 355 354 353
295 95 357 35 122 115 123 88 355 94 165 135 114 113 56 342 324 313 345 317 327 91 331 41 318 321 325 339 334 320 308 284 250 244 257 272 273 321 308 309 356 8 356 343 344
52 135 353 35 325 237 172 154 142 47 10 87 36 40 340 274 279 307 333 334 2 350 315 185 200 234 275 273 288 296 291 283 254 250 271 259 281 295 297 311 5 22 1 16 7
71 186 201 152 231 263 232 182 180 149 190 106 266 215 237 263 329 290 310 322 328 332 1 329 288 259 268 273 287 288 288 288 280 267 262 277 273 280 302 348 11 27 3 13 356
128 145 282 277 146 202 133 237 243 206 163 191 177 273 19 360 282 305 338 351 297 358 344 340 295 318 295 286 283 290 300 285 281 274 265 276 275 17 8 4 11 5 343 355 356
325 39 72 315 162 190 170 181 211 242 95 151 18 11 332 345 355 315 296 282 269 273 280 279 278 290 272 305 313 299 284 310 317 339 304 310 347 343 2 329 26 349 1 350 338